Location: Nora Junction
(43.1400°N, 93.0163°W)
Time: 23:27:12
(UTC+00:00)

Cosmos 371 Rocket - Pass Details

Date: 18 November 2025
Orbit: 674 x 690 km, 74.0° (Epoch: 14 December)

Event Time Altitude Azimuth Distance (km) Brightness Sun altitude
Rises 23:35:59 0° 169° (S) 3,026 6.7 -9.4°
Reaches altitude 10° 23:38:33 10° 157° (SSE) 2,119 5.7 -9.9°
Maximum altitude 23:42:33 27° 100° (E) 1,303 4.2 -10.6°
Enters shadow 23:46:12 12° 46° (NE) 2,023 5.2 -11.2°
